FW7988 Weather Reports


Display with metric or nautical units.
time (UTC)temp
F
wind
direction
speed
MPH
gust
MPH
rain 1hr
in
rain 24hr
in
rain mn
in
humidity
%
barometer
mb
20260510193616 86 126 9.0 16.0 0.00 0.00 0.00 60
20260510193112 86 169 12.0 14.0 0.00 0.00 0.00 58
20260510192607 85 178 12.0 14.0 0.00 0.00 0.00 58
20260510192103 86 150 7.0 16.0 0.00 0.00 0.00 59
20260510191600 86 145 7.0 13.0 0.00 0.00 0.00 59
20260510191057 85 102 8.0 11.0 0.00 0.00 0.00 61
20260510190554 84 186 12.0 14.0 0.00 0.00 0.00 62
20260510190052 84 139 14.0 18.0 0.00 0.00 0.00 60
20260510185548 85 144 12.0 15.0 0.00 0.00 0.00 61
20260510185045 85 131 9.0 15.0 0.00 0.00 0.00 60
20260510184543 84 172 6.0 14.0 0.00 0.00 0.00 62
20260510184038 84 125 13.0 17.0 0.00 0.00 0.00 62
20260510183533 84 115 9.0 13.0 0.00 0.00 0.00 63
20260510183028 84 123 9.0 16.0 0.00 0.00 0.00 65
20260510182526 84 170 5.0 14.0 0.00 0.00 0.00 64
20260510182021 83 137 7.0 15.0 0.00 0.00 0.00 66
20260510181519 83 117 3.0 9.0 0.00 0.00 0.00 66
20260510181015 83 136 8.0 13.0 0.00 0.00 0.00 64
20260510180512 83 125 10.0 14.0 0.00 0.00 0.00 62
20260510180010 83 78 9.0 14.0 0.00 0.00 0.00 63
20260510175504 82 126 8.0 15.0 0.00 0.00 0.00 65
20260510175001 82 147 8.0 11.0 0.00 0.00 0.00 64
20260510174459 82 91 8.0 14.0 0.00 0.00 0.00 65
20260510173955 82 149 10.0 15.0 0.00 0.00 0.00 66
20260510173451 82 162 12.0 16.0 0.00 0.00 0.00 65
20260510172948 82 129 11.0 15.0 0.00 0.00 0.00 64
20260510172443 82 146 6.0 13.0 0.00 0.00 0.00 67
20260510171940 81 161 5.0 9.0 0.00 0.00 0.00 70
20260510171437 81 148 11.0 14.0 0.00 0.00 0.00 68
20260510170934 81 147 11.0 14.0 0.00 0.00 0.00 68
20260510170430 81 122 10.0 14.0 0.00 0.00 0.00 69
20260510165926 81 126 5.0 14.0 0.00 0.00 0.00 70
20260510165422 82 138 8.0 14.0 0.00 0.00 0.00 69
20260510164919 81 156 4.0 9.0 0.00 0.00 0.00 70
20260510164417 81 114 9.0 14.0 0.00 0.00 0.00 69
20260510163917 81 135 5.0 10.0 0.00 0.00 0.00 70
20260510163413 80 143 7.0 8.0 0.00 0.00 0.00 71
20260510162907 80 180 6.0 10.0 0.00 0.00 0.00 70
20260510162406 81 163 6.0 11.0 0.00 0.00 0.00 69
20260510161901 81 122 8.0 11.0 0.00 0.00 0.00 70
20260510161356 80 210 7.0 14.0 0.00 0.00 0.00 71
20260510160853 80 155 8.0 10.0 0.00 0.00 0.00 70
20260510160350 80 137 8.0 11.0 0.00 0.00 0.00 71
20260510155844 80 117 11.0 14.0 0.00 0.00 0.00 72
20260510155341 79 86 7.0 14.0 0.00 0.00 0.00 72
20260510154837 80 119 5.0 10.0 0.00 0.00 0.00 72
20260510154333 80 137 2.0 7.0 0.00 0.00 0.00 72
20260510153828 79 122 4.0 10.0 0.00 0.00 0.00 71
20260510153324 79 137 8.0 11.0 0.00 0.00 0.00 72
20260510152821 79 154 8.0 11.0 0.00 0.00 0.00 72
20260510152318 79 96 5.0 9.0 0.00 0.00 0.00 74
20260510151814 79 153 5.0 9.0 0.00 0.00 0.00 73
20260510151312 79 148 4.0 6.0 0.00 0.00 0.00 74
20260510150808 78 58 4.0 6.0 0.00 0.00 0.00 75
20260510150304 78 147 5.0 8.0 0.00 0.00 0.00 75
20260510145800 78 87 4.0 7.0 0.00 0.00 0.00 75
20260510145257 77 98 2.0 9.0 0.00 0.00 0.00 77
20260510144753 77 169 5.0 6.0 0.00 0.00 0.00 75
20260510144250 77 151 6.0 9.0 0.00 0.00 0.00 77
20260510143749 76 176 3.0 6.0 0.00 0.00 0.00 78
20260510143246 77 149 4.0 6.0 0.00 0.00 0.00 78
20260510142743 76 147 3.0 6.0 0.00 0.00 0.00 79
20260510142240 75 140 7.0 9.0 0.00 0.00 0.00 79
20260510141737 75 122 5.0 7.0 0.00 0.00 0.00 79
20260510141235 75 141 7.0 8.0 0.00 0.00 0.00 79
20260510140731 75 159 3.0 6.0 0.00 0.00 0.00 80
20260510140226 74 96 2.0 5.0 0.00 0.00 0.00 81
20260510135720 74 133 1.0 5.0 0.00 0.00 0.00 82
20260510135216 73 146 3.0 6.0 0.00 0.00 0.00 82
20260510134714 73 137 5.0 8.0 0.00 0.00 0.00 83
20260510134211 73 156 5.0 8.0 0.00 0.00 0.00 83
20260510133707 72 187 5.0 9.0 0.00 0.00 0.00 84
20260510133202 72 165 6.0 7.0 0.00 0.00 0.00 84
20260510132659 71 164 3.0 6.0 0.00 0.00 0.00 85
20260510132156 71 193 4.0 5.0 0.00 0.00 0.00 86
20260510131654 71 179 3.0 6.0 0.00 0.00 0.00 86
20260510131151 71 134 1.0 8.0 0.00 0.00 0.00 86
20260510130647 70 179 3.0 7.0 0.00 0.00 0.00 87
20260510130144 70 178 3.0 8.0 0.00 0.00 0.00 88
20260510125641 69 187 5.0 7.0 0.00 0.00 0.00 88
20260510125137 69 158 3.0 6.0 0.00 0.00 0.00 89
20260510124634 69 187 3.0 5.0 0.00 0.00 0.00 90
20260510124131 68 171 2.0 3.0 0.00 0.00 0.00 90
20260510123626 68 173 2.0 3.0 0.00 0.00 0.00 91
20260510123123 68 170 2.0 3.0 0.00 0.00 0.00 91
20260510122619 67 178 2.0 5.0 0.00 0.00 0.00 93
20260510122114 67 222 2.0 3.0 0.00 0.00 0.00 94
20260510121612 67 202 3.0 5.0 0.00 0.00 0.00 94
20260510121109 66 180 3.0 6.0 0.00 0.00 0.00 95
20260510120607 66 172 5.0 6.0 0.00 0.00 0.00 95
20260510115559 66 171 0.0 0.0 0.00 0.00 0.00 96
20260510115056 66 212 0.0 0.0 0.00 0.00 0.00 96
20260510114551 66 213 1.0 2.0 0.00 0.00 0.00 96
20260510114048 66 184 2.0 3.0 0.00 0.00 0.00 96
20260510113543 65 197 1.0 2.0 0.00 0.00 0.00 95
20260510113041 66 164 4.0 5.0 0.00 0.00 0.00 95
20260510112537 66 156 2.0 3.0 0.00 0.00 0.00 95
20260510112034 66 188 2.0 2.0 0.00 0.00 0.00 95
20260510111531 66 195 0.0 0.0 0.00 0.00 0.00 95
20260510111027 66 191 0.0 1.0 0.00 0.00 0.00 95
20260510110523 66 183 2.0 2.0 0.00 0.00 0.00 95
20260510110020 66 185 1.0 2.0 0.00 0.00 0.00 95
20260510105515 66 188 3.0 5.0 0.00 0.00 0.00 95
20260510105010 67 210 4.0 6.0 0.00 0.00 0.00 94
20260510104507 67 183 4.0 5.0 0.00 0.00 0.00 94
20260510104003 67 180 4.0 6.0 0.00 0.00 0.00 94
20260510103500 67 189 3.0 6.0 0.00 0.00 0.00 94
20260510102956 67 193 4.0 6.0 0.00 0.00 0.00 94
20260510102452 67 191 3.0 6.0 0.00 0.00 0.00 94
20260510101948 67 178 3.0 5.0 0.00 0.00 0.00 93
20260510101446 68 183 5.0 9.0 0.00 0.00 0.00 93
20260510100945 68 180 7.0 9.0 0.00 0.00 0.00 93
20260510100441 68 176 6.0 10.0 0.00 0.00 0.00 93
20260510095937 68 205 5.0 11.0 0.00 0.00 0.00 93
20260510095433 68 185 5.0 9.0 0.00 0.00 0.00 93
20260510094932 68 173 4.0 7.0 0.00 0.00 0.00 92
20260510094427 68 176 4.0 7.0 0.00 0.00 0.00 93
20260510093923 68 210 5.0 8.0 0.00 0.00 0.00 92
20260510093418 68 190 3.0 7.0 0.00 0.00 0.00 92
20260510092915 69 179 5.0 9.0 0.00 0.00 0.00 91
20260510092413 69 197 6.0 7.0 0.00 0.00 0.00 91
20260510091907 69 203 7.0 10.0 0.00 0.00 0.00 91
20260510091404 69 183 3.0 7.0 0.00 0.00 0.00 90
20260510090900 69 180 6.0 7.0 0.00 0.00 0.00 90
20260510090357 69 195 5.0 7.0 0.00 0.00 0.00 90
20260510085853 70 166 4.0 7.0 0.00 0.00 0.00 89
20260510085348 69 190 4.0 7.0 0.00 0.00 0.00 90
20260510084844 69 184 4.0 6.0 0.00 0.00 0.00 90
20260510084342 69 165 4.0 7.0 0.00 0.00 0.00 90
20260510083838 69 192 3.0 6.0 0.00 0.00 0.00 89
20260510083334 70 185 4.0 6.0 0.00 0.00 0.00 89
20260510082830 70 182 5.0 7.0 0.00 0.00 0.00 89
20260510082327 70 186 5.0 8.0 0.00 0.00 0.00 89
20260510081826 70 187 6.0 8.0 0.00 0.00 0.00 88
20260510081322 70 170 5.0 8.0 0.00 0.00 0.00 88
20260510080818 70 169 5.0 7.0 0.00 0.00 0.00 88
20260510080314 70 150 5.0 7.0 0.00 0.00 0.00 87
20260510075811 71 186 6.0 10.0 0.00 0.00 0.00 87
20260510075308 71 191 7.0 9.0 0.00 0.00 0.00 87
20260510074805 71 190 4.0 10.0 0.00 0.00 0.00 87
20260510074302 71 194 5.0 9.0 0.00 0.00 0.00 87
20260510073758 71 172 5.0 7.0 0.00 0.00 0.00 86
20260510073254 71 174 5.0 8.0 0.00 0.00 0.00 86
20260510072749 71 186 4.0 8.0 0.00 0.00 0.00 86
20260510072246 71 135 2.0 6.0 0.00 0.00 0.00 86
20260510071742 71 151 5.0 6.0 0.00 0.00 0.00 85
20260510071239 71 174 5.0 7.0 0.00 0.00 0.00 85
20260510070738 71 165 3.0 5.0 0.00 0.00 0.00 85
20260510070234 71 169 4.0 6.0 0.00 0.00 0.00 85
20260510065729 71 174 4.0 6.0 0.00 0.00 0.00 85
20260510065226 71 158 3.0 5.0 0.00 0.00 0.00 85
20260510064722 71 205 4.0 7.0 0.00 0.00 0.00 85
20260510064220 71 143 4.0 6.0 0.00 0.00 0.00 85
20260510063717 71 178 3.0 6.0 0.00 0.00 0.00 84
20260510063213 72 181 3.0 7.0 0.00 0.00 0.00 84
20260510062709 72 179 2.0 5.0 0.00 0.00 0.00 83
20260510062206 72 165 5.0 7.0 0.00 0.00 0.00 83
20260510061701 73 159 7.0 9.0 0.00 0.00 0.00 82
20260510061159 73 157 3.0 8.0 0.00 0.00 0.00 82
20260510060655 73 199 6.0 8.0 0.00 0.00 0.00 81
20260510060152 73 169 3.0 9.0 0.00 0.00 0.00 80
20260510055648 73 179 4.0 7.0 0.00 0.00 0.00 80
20260510055145 74 165 2.0 7.0 0.00 0.00 0.00 79
20260510054641 74 185 4.0 8.0 0.00 0.00 0.00 78
20260510054137 75 171 4.0 6.0 0.00 0.00 0.00 78
20260510053636 75 160 5.0 7.0 0.00 0.00 0.00 77
20260510053133 75 130 6.0 7.0 0.00 0.00 0.00 77
20260510052629 75 165 3.0 5.0 0.00 0.00 0.00 77
20260510052126 75 143 5.0 8.0 0.00 0.00 0.00 77
20260510051621 75 192 3.0 9.0 0.00 0.00 0.00 77
20260510051118 75 156 5.0 7.0 0.00 0.00 0.00 77
20260510050615 75 168 4.0 8.0 0.00 0.00 0.00 78
20260510050113 75 160 4.0 6.0 0.00 0.00 0.00 79
20260510045609 74 170 4.0 6.0 0.00 0.01 0.01 80
20260510045105 75 168 3.0 5.0 0.00 0.01 0.01 80
20260510044602 75 183 3.0 3.0 0.00 0.01 0.01 81
20260510044059 75 142 3.0 3.0 0.00 0.01 0.01 81
20260510043554 75 181 1.0 3.0 0.00 0.01 0.01 81
20260510043050 75 203 1.0 1.0 0.00 0.01 0.01 81
20260510042544 75 208 0.0 1.0 0.00 0.01 0.01 81
20260510042040 75 180 2.0 3.0 0.00 0.01 0.01 81
20260510041537 75 193 1.0 2.0 0.00 0.01 0.01 81
20260510041035 75 127 1.0 3.0 0.00 0.01 0.01 82
20260510040531 75 147 2.0 2.0 0.00 0.01 0.01 82
20260510040027 75 153 1.0 3.0 0.00 0.01 0.01 81
20260510035523 75 142 0.0 2.0 0.00 0.01 0.01 81
20260510035023 76 174 3.0 5.0 0.00 0.01 0.01 80
20260510034522 76 176 2.0 2.0 0.00 0.01 0.01 80
20260510034018 76 193 2.0 3.0 0.00 0.01 0.01 79
20260510033514 76 182 3.0 5.0 0.00 0.01 0.01 79
20260510033012 77 198 2.0 3.0 0.00 0.01 0.01 79
20260510032508 77 179 0.0 2.0 0.00 0.01 0.01 78
20260510032009 77 165 3.0 6.0 0.00 0.01 0.01 78
20260510031504 77 151 1.0 3.0 0.00 0.01 0.01 78
20260510031000 78 170 0.0 2.0 0.00 0.01 0.01 77
20260510030456 78 140 3.0 7.0 0.00 0.01 0.01 77
20260510025953 78 181 2.0 3.0 0.00 0.01 0.01 76
20260510025450 78 126 4.0 8.0 0.00 0.01 0.01 75
20260510024948 79 142 3.0 6.0 0.00 0.01 0.01 74
20260510024444 79 155 4.0 6.0 0.00 0.01 0.01 73
20260510023940 79 114 5.0 7.0 0.00 0.01 0.01 73
20260510023437 79 127 5.0 6.0 0.00 0.01 0.01 72
20260510022934 79 161 5.0 8.0 0.00 0.01 0.01 71
20260510022433 78 137 5.0 7.0 0.00 0.01 0.01 71
20260510021932 78 123 2.0 6.0 0.00 0.01 0.01 70
20260510021430 77 154 0.0 0.0 0.00 0.01 0.01 69
20260510020926 78 195 0.0 0.0 0.00 0.01 0.01 68
20260510020421 78 160 1.0 2.0 0.00 0.01 0.01 67
20260510015917 78 155 0.0 0.0 0.00 0.01 0.01 67
20260510015413 78 166 0.0 0.0 0.00 0.01 0.01 66
20260510014908 79 99 0.0 0.0 0.00 0.01 0.01 65
20260510014406 80 161 0.0 0.0 0.00 0.01 0.01 64
20260510013903 80 156 0.0 1.0 0.00 0.01 0.01 62
20260510013357 81 124 2.0 5.0 0.00 0.01 0.01 61
20260510012852 81 128 3.0 6.0 0.00 0.01 0.01 60
20260510012348 81 136 4.0 5.0 0.00 0.01 0.01 60
20260510011843 82 169 4.0 5.0 0.00 0.01 0.01 59
20260510011338 82 145 5.0 6.0 0.00 0.01 0.01 58
20260510010835 82 114 4.0 6.0 0.00 0.01 0.01 57
20260510010332 82 154 5.0 8.0 0.00 0.01 0.01 57
20260510005828 83 128 5.0 6.0 0.00 0.01 0.01 56
20260510005325 84 134 7.0 8.0 0.00 0.01 0.01 56
20260510004823 84 154 4.0 7.0 0.00 0.01 0.01 54
20260510004320 84 142 8.0 10.0 0.00 0.01 0.01 52
20260510003818 84 140 8.0 9.0 0.00 0.01 0.01 51
20260510003314 85 130 6.0 8.0 0.00 0.01 0.01 49
20260510002813 85 140 6.0 7.0 0.00 0.01 0.01 48
20260510002311 86 125 5.0 7.0 0.00 0.01 0.01 48
20260510001807 86 106 3.0 7.0 0.00 0.01 0.01 47
20260510001305 86 147 4.0 6.0 0.00 0.01 0.01 46
20260510000801 86 128 5.0 9.0 0.00 0.01 0.01 46
20260510000259 86 130 6.0 9.0 0.00 0.01 0.01 46
20260509235756 86 151 7.0 11.0 0.00 0.01 0.01 46
20260509235252 86 125 10.0 11.0 0.00 0.01 0.01 45
20260509234747 87 104 9.0 11.0 0.00 0.01 0.01 45
20260509234245 87 133 7.0 10.0 0.00 0.01 0.01 47
20260509233743 88 128 7.0 9.0 0.00 0.01 0.01 46
20260509233240 87 185 7.0 9.0 0.00 0.01 0.01 47
20260509232736 88 143 8.0 10.0 0.00 0.01 0.01 46
20260509232233 88 181 4.0 10.0 0.00 0.01 0.01 46
20260509231730 88 135 3.0 8.0 0.00 0.01 0.01 49
20260509231227 88 97 3.0 5.0 0.00 0.01 0.01 53
20260509230725 88 108 6.0 8.0 0.00 0.01 0.01 53
20260509230221 88 107 4.0 6.0 0.00 0.01 0.01 52
20260509225716 89 163 2.0 7.0 0.00 0.01 0.01 52
20260509225212 89 113 2.0 5.0 0.00 0.01 0.01 50
20260509224708 88 123 6.0 10.0 0.00 0.01 0.01 51
20260509224205 88 93 1.0 7.0 0.00 0.01 0.01 52
20260509223702 88 94 1.0 6.0 0.00 0.01 0.01 52
20260509223159 87 118 5.0 7.0 0.00 0.01 0.01 51
20260509222656 87 136 5.0 7.0 0.00 0.01 0.01 53
20260509222152 87 80 4.0 8.0 0.00 0.01 0.01 52
20260509221648 87 78 3.0 9.0 0.00 0.01 0.01 53
20260509221143 87 176 1.0 6.0 0.00 0.01 0.01 53
20260509220640 87 61 1.0 7.0 0.00 0.01 0.01 54
20260509220136 87 139 3.0 7.0 0.00 0.01 0.01 54
20260509215632 86 147 4.0 6.0 0.00 0.01 0.01 55
20260509215129 86 89 5.0 6.0 0.00 0.01 0.01 54
20260509214626 85 138 5.0 10.0 0.00 0.01 0.01 54
20260509214123 83 91 8.0 11.0 0.00 0.01 0.01 56
20260509213619 83 145 6.0 13.0 0.00 0.01 0.01 56
20260509213115 83 152 11.0 14.0 0.00 0.01 0.01 54
20260509212613 83 104 7.0 14.0 0.00 0.01 0.01 54
20260509212110 84 109 12.0 16.0 0.00 0.01 0.01 53
20260509211606 84 145 9.0 14.0 0.00 0.01 0.01 54
20260509211103 87 116 8.0 14.0 0.00 0.01 0.01 51
20260509210559 92 111 3.0 5.0 0.00 0.01 0.01 44
20260509210056 91 91 3.0 5.0 0.00 0.01 0.01 44
20260509205550 92 335 6.0 9.0 0.00 0.01 0.01 45
20260509205045 93 218 5.0 6.0 0.00 0.01 0.01 42
20260509204542 91 73 1.0 3.0 0.00 0.01 0.01 44
20260509204038 90 10 2.0 8.0 0.00 0.01 0.01 46
20260509203534 89 352 7.0 7.0 0.00 0.01 0.01 48
20260509203033 88 316 2.0 2.0 0.00 0.01 0.01 50
20260509202527 89 273 0.0 5.0 0.00 0.01 0.01 52
20260509202023 89 245 7.0 9.0 0.00 0.01 0.01 49
20260509201518 88 248 5.0 8.0 0.00 0.01 0.01 51
20260509201016 91 266 4.0 6.0 0.00 0.01 0.01 46
20260509200510 91 23 0.0 3.0 0.00 0.01 0.01 43
20260509200007 89 74 2.0 7.0 0.00 0.01 0.01 51
20260509195502 88 207 1.0 7.0 0.00 0.01 0.01 50
20260509195002 87 240 4.0 6.0 0.00 0.01 0.01 54
20260509194457 88 309 4.0 7.0 0.00 0.01 0.01 54
20260509193955 88 278 7.0 10.0 0.00 0.01 0.01 54